Location: Bothwell
(41.7170°N, 112.2589°W)
Time: 02:17:58
(UTC+00:00)

Tiros 1 - Pass Details

Date: 15 May 2026
Orbit: 618 x 649 km, 48.4° (Epoch: 6 June)

Event Time Altitude Azimuth Distance (km) Brightness Sun altitude
Rises 12:20:13 0° 298° (WNW) 2,895 10.1 1.0°
Reaches altitude 10° 12:22:32 10° 298° (WNW) 1,984 9.3 1.4°
Maximum altitude 12:27:06 89° 20° (NNE) 621 7.2 2.2°
Drops below altitude 10° 12:31:38 10° 119° (ESE) 1,972 10.3 3.0°
Sets 12:33:56 0° 120° (ESE) 2,876 11.1 3.4°
